Overview Statistics Trail Chart Weather Telemetry Raw packets
 

This is the latest recevied weather packets stored in our database for station/object E25DQY-1. If no packets are shown the sender has not sent any weather packets the latest 10 day(s).

<< 1 2 3 4 5 6 7 >>
Time Temp. Humidity Pressure Rain* Wind** Luminosity Snow
1788581223 42.78° C 42% 1007 hPa - - 0 W/m² -
1788579401 42.22° C 43% 1007 hPa - - 0 W/m² -
1788577579 41.67° C 45% 1007 hPa - - 0 W/m² -
1788575757 40.56° C 48% 1007 hPa - - 0 W/m² -
1788573935 38.89° C 52% 1007 hPa - - 0 W/m² -
1788572113 36.67° C 56% 1007 hPa - - 0 W/m² -
1788570291 35° C 58% 1007 hPa - - 0 W/m² -
1788568469 33.89° C 59% 1006 hPa - - 0 W/m² -
1788566646 33.33° C 59% 1006 hPa - - 0 W/m² -
1788564824 32.78° C 60% 1005 hPa - - 0 W/m² -
1788563002 32.78° C 60% 1005 hPa - - 0 W/m² -
1788561180 33.33° C 60% 1005 hPa - - 0 W/m² -
1788559358 33.33° C 60% 1005 hPa - - 0 W/m² -
1788557535 33.33° C 60% 1005 hPa - - 0 W/m² -
1788555713 32.78° C 61% 1004 hPa - - 0 W/m² -
1788553891 33.33° C 60% 1004 hPa - - 0 W/m² -
1788552069 33.33° C 59% 1004 hPa - - 0 W/m² -
1788550247 33.33° C 58% 1005 hPa - - 0 W/m² -
1788548425 32.78° C 57% 1005 hPa - - 0 W/m² -
1788546603 33.33° C 55% 1005 hPa - - 0 W/m² -
1788544781 33.33° C 55% 1005 hPa - - 0 W/m² -
1788542959 33.89° C 56% 1005 hPa - - 0 W/m² -
1788541138 33.89° C 56% 1005 hPa - - 0 W/m² -
1788539315 34.44° C 55% 1006 hPa - - 0 W/m² -
1788537493 34.44° C 54% 1006 hPa - - 0 W/m² -

* Rain since midnight (hover to see other rain measurements)
** Current wind speed in m/s (hover to see current wind gust speed)